Year,Month,Day,Hour,Minute,Value (Times are PST for temperature in C)
2015,08,12,00,00,19.20
2015,08,12,00,01,19.10
2015,08,12,00,02,19.10
2015,08,12,00,03,19.10
2015,08,12,00,04,19.10
2015,08,12,00,05,19.00
2015,08,12,00,06,19.00
2015,08,12,00,07,19.00
2015,08,12,00,08,18.90
2015,08,12,00,09,18.90
2015,08,12,00,10,18.90
2015,08,12,00,11,18.80
2015,08,12,00,12,18.80
2015,08,12,00,13,18.80
2015,08,12,00,14,18.70
2015,08,12,00,15,18.70
2015,08,12,00,16,18.70
2015,08,12,00,17,18.70
2015,08,12,00,18,18.60
2015,08,12,00,19,18.60
2015,08,12,00,20,18.60
2015,08,12,00,21,18.60
2015,08,12,00,22,18.60
2015,08,12,00,23,18.50
2015,08,12,00,24,18.50
2015,08,12,00,25,18.40
2015,08,12,00,26,18.40
2015,08,12,00,27,18.40
2015,08,12,00,28,18.30
2015,08,12,00,29,18.30
2015,08,12,00,30,18.20
2015,08,12,00,31,18.20
2015,08,12,00,32,18.10
2015,08,12,00,33,18.10
2015,08,12,00,34,18.10
2015,08,12,00,35,18.00
2015,08,12,00,36,18.00
2015,08,12,00,37,17.90
2015,08,12,00,38,17.90
2015,08,12,00,39,17.90
2015,08,12,00,40,17.90
2015,08,12,00,41,17.90
2015,08,12,00,42,17.90
2015,08,12,00,43,17.80
2015,08,12,00,44,17.80
2015,08,12,00,45,17.80
2015,08,12,00,46,17.80
2015,08,12,00,47,17.90
2015,08,12,00,48,17.90
2015,08,12,00,49,17.90
2015,08,12,00,50,18.00
2015,08,12,00,51,18.00
2015,08,12,00,52,18.10
2015,08,12,00,53,18.10
2015,08,12,00,54,18.10
2015,08,12,00,55,18.20
2015,08,12,00,56,18.20
2015,08,12,00,57,18.20
2015,08,12,00,58,18.20
2015,08,12,00,59,18.30
2015,08,12,01,00,18.30
2015,08,12,01,01,18.30
2015,08,12,01,02,18.30
2015,08,12,01,03,18.40
2015,08,12,01,04,18.40
2015,08,12,01,05,18.40
2015,08,12,01,06,18.40
2015,08,12,01,07,18.30
2015,08,12,01,08,18.30
2015,08,12,01,09,18.30
2015,08,12,01,10,18.30
2015,08,12,01,11,18.30
2015,08,12,01,12,18.20
2015,08,12,01,13,18.20
2015,08,12,01,14,18.20
2015,08,12,01,15,18.10
2015,08,12,01,16,18.10
2015,08,12,01,17,18.00
2015,08,12,01,18,18.00
2015,08,12,01,19,17.90
2015,08,12,01,20,17.90
2015,08,12,01,21,17.80
2015,08,12,01,22,17.80
2015,08,12,01,23,17.80
2015,08,12,01,24,17.80
2015,08,12,01,25,17.80
2015,08,12,01,26,17.80
2015,08,12,01,27,17.80
2015,08,12,01,28,17.80
2015,08,12,01,29,17.80
2015,08,12,01,30,17.80
2015,08,12,01,31,17.80
2015,08,12,01,32,17.80
2015,08,12,01,33,17.80
2015,08,12,01,34,17.80
2015,08,12,01,35,17.80
2015,08,12,01,36,17.80
2015,08,12,01,37,17.70
2015,08,12,01,38,17.70
2015,08,12,01,39,17.70
2015,08,12,01,40,17.70
2015,08,12,01,41,17.70
2015,08,12,01,42,17.70
2015,08,12,01,43,17.70
2015,08,12,01,44,17.70
2015,08,12,01,45,17.70
2015,08,12,01,46,17.70
2015,08,12,01,47,17.70
2015,08,12,01,48,17.70
2015,08,12,01,49,17.70
2015,08,12,01,50,17.70
2015,08,12,01,51,17.70
2015,08,12,01,52,17.70
2015,08,12,01,53,17.70
2015,08,12,01,54,17.70
2015,08,12,01,55,17.70
2015,08,12,01,56,17.70
2015,08,12,01,57,17.70
2015,08,12,01,58,17.70
2015,08,12,01,59,17.70
2015,08,12,02,00,17.70
2015,08,12,02,01,17.70
2015,08,12,02,02,17.70
2015,08,12,02,03,17.70
2015,08,12,02,04,17.70
2015,08,12,02,05,17.70
2015,08,12,02,06,17.70
2015,08,12,02,07,17.70
2015,08,12,02,08,17.70
2015,08,12,02,09,17.60
2015,08,12,02,10,17.60
2015,08,12,02,11,17.60
2015,08,12,02,12,17.50
2015,08,12,02,13,17.50
2015,08,12,02,14,17.50
2015,08,12,02,15,17.40
2015,08,12,02,16,17.40
2015,08,12,02,17,17.40
2015,08,12,02,18,17.40
2015,08,12,02,19,17.30
2015,08,12,02,20,17.30
2015,08,12,02,21,17.30
2015,08,12,02,22,17.30
2015,08,12,02,23,17.20
2015,08,12,02,24,17.20
2015,08,12,02,25,17.20
2015,08,12,02,26,17.20
2015,08,12,02,27,17.20
2015,08,12,02,28,17.20
2015,08,12,02,29,17.20
2015,08,12,02,30,17.20
2015,08,12,02,31,17.30
2015,08,12,02,32,17.30
2015,08,12,02,33,17.30
2015,08,12,02,34,17.40
2015,08,12,02,35,17.40
2015,08,12,02,36,17.50
2015,08,12,02,37,17.50
2015,08,12,02,38,17.60
2015,08,12,02,39,17.60
2015,08,12,02,40,17.70
2015,08,12,02,41,17.70
2015,08,12,02,42,17.70
2015,08,12,02,43,17.70
2015,08,12,02,44,17.80
2015,08,12,02,45,17.80
2015,08,12,02,46,17.90
2015,08,12,02,47,17.90
2015,08,12,02,48,18.10
2015,08,12,02,49,18.20
2015,08,12,02,50,18.30
2015,08,12,02,51,18.50
2015,08,12,02,52,18.60
2015,08,12,02,53,18.70
2015,08,12,02,54,18.80
2015,08,12,02,55,18.90
2015,08,12,02,56,18.90
2015,08,12,02,57,18.80
2015,08,12,02,58,18.70
2015,08,12,02,59,18.60
2015,08,12,03,00,18.60
2015,08,12,03,01,18.50
2015,08,12,03,02,18.50
2015,08,12,03,03,18.40
2015,08,12,03,04,18.40
2015,08,12,03,05,18.30
2015,08,12,03,06,18.30
2015,08,12,03,07,18.30
2015,08,12,03,08,18.20
2015,08,12,03,09,18.20
2015,08,12,03,10,18.10
2015,08,12,03,11,18.10
2015,08,12,03,12,18.00
2015,08,12,03,13,17.90
2015,08,12,03,14,17.90
2015,08,12,03,15,17.80
2015,08,12,03,16,17.80
2015,08,12,03,17,17.70
2015,08,12,03,18,17.70
2015,08,12,03,19,17.70
2015,08,12,03,20,17.70
2015,08,12,03,21,17.60
2015,08,12,03,22,17.60
2015,08,12,03,23,17.50
2015,08,12,03,24,17.50
2015,08,12,03,25,17.50
2015,08,12,03,26,17.50
2015,08,12,03,27,17.60
2015,08,12,03,28,17.60
2015,08,12,03,29,17.50
2015,08,12,03,30,17.50
2015,08,12,03,31,17.40
2015,08,12,03,32,17.30
2015,08,12,03,33,17.30
2015,08,12,03,34,17.20
2015,08,12,03,35,17.10
2015,08,12,03,36,17.10
2015,08,12,03,37,17.00
2015,08,12,03,38,17.00
2015,08,12,03,39,16.90
2015,08,12,03,40,16.90
2015,08,12,03,41,16.90
2015,08,12,03,42,16.90
2015,08,12,03,43,16.80
2015,08,12,03,44,16.80
2015,08,12,03,45,16.80
2015,08,12,03,46,16.70
2015,08,12,03,47,16.70
2015,08,12,03,48,16.60
2015,08,12,03,49,16.60
2015,08,12,03,50,16.60
2015,08,12,03,51,16.50
2015,08,12,03,52,16.50
2015,08,12,03,53,16.50
2015,08,12,03,54,16.40
2015,08,12,03,55,16.40
2015,08,12,03,56,16.40
2015,08,12,03,57,16.40
2015,08,12,03,58,16.40
2015,08,12,03,59,16.40
2015,08,12,04,00,16.40
2015,08,12,04,01,16.30
2015,08,12,04,02,16.30
2015,08,12,04,03,16.30
2015,08,12,04,04,16.30
2015,08,12,04,05,16.20
2015,08,12,04,06,16.20
2015,08,12,04,07,16.20
2015,08,12,04,08,16.20
2015,08,12,04,09,16.20
2015,08,12,04,10,16.20
2015,08,12,04,11,16.10
2015,08,12,04,12,16.10
2015,08,12,04,13,16.10
2015,08,12,04,14,16.10
2015,08,12,04,15,16.00
2015,08,12,04,16,16.00
2015,08,12,04,17,16.00
2015,08,12,04,18,15.90
2015,08,12,04,19,15.90
2015,08,12,04,20,15.90
2015,08,12,04,21,15.90
2015,08,12,04,22,15.80
2015,08,12,04,23,15.80
2015,08,12,04,24,15.80
2015,08,12,04,25,15.80
2015,08,12,04,26,15.80
2015,08,12,04,27,15.80
2015,08,12,04,28,15.80
2015,08,12,04,29,15.80
2015,08,12,04,30,15.80
2015,08,12,04,31,15.80
2015,08,12,04,32,15.80
2015,08,12,04,33,15.80
2015,08,12,04,34,15.80
2015,08,12,04,35,15.80
2015,08,12,04,36,15.70
2015,08,12,04,37,15.70
2015,08,12,04,38,15.70
2015,08,12,04,39,15.70
2015,08,12,04,40,15.70
2015,08,12,04,41,15.70
2015,08,12,04,42,15.70
2015,08,12,04,43,15.70
2015,08,12,04,44,15.70
2015,08,12,04,45,15.70
2015,08,12,04,46,15.70
2015,08,12,04,47,15.70
2015,08,12,04,48,15.70
2015,08,12,04,49,15.70
2015,08,12,04,50,15.70
2015,08,12,04,51,15.70
2015,08,12,04,52,15.70
2015,08,12,04,53,15.70
2015,08,12,04,54,15.70
2015,08,12,04,55,15.70
2015,08,12,04,56,15.70
2015,08,12,04,57,15.70
2015,08,12,04,58,15.60
2015,08,12,04,59,15.60
2015,08,12,05,00,15.60
2015,08,12,05,01,15.60
2015,08,12,05,02,15.60
2015,08,12,05,03,15.60
2015,08,12,05,04,15.60
2015,08,12,05,05,15.60
2015,08,12,05,06,15.60
2015,08,12,05,07,15.60
2015,08,12,05,08,15.60
2015,08,12,05,09,15.60
2015,08,12,05,10,15.60
2015,08,12,05,11,15.60
2015,08,12,05,12,15.60
2015,08,12,05,13,15.50
2015,08,12,05,14,15.50
2015,08,12,05,15,15.50
2015,08,12,05,16,15.40
2015,08,12,05,17,15.40
2015,08,12,05,18,15.40
2015,08,12,05,19,15.40
2015,08,12,05,20,15.40
2015,08,12,05,21,15.40
2015,08,12,05,22,15.50
2015,08,12,05,23,15.50
2015,08,12,05,24,15.60
2015,08,12,05,25,15.60
2015,08,12,05,26,15.60
2015,08,12,05,27,15.70
2015,08,12,05,28,15.70
2015,08,12,05,29,15.70
2015,08,12,05,30,15.70
2015,08,12,05,31,15.80
2015,08,12,05,32,15.80
2015,08,12,05,33,15.80
2015,08,12,05,34,15.80
2015,08,12,05,35,15.80
2015,08,12,05,36,15.80
2015,08,12,05,37,15.80
2015,08,12,05,38,15.80
2015,08,12,05,39,15.80
2015,08,12,05,40,15.80
2015,08,12,05,41,15.80
2015,08,12,05,42,15.80
2015,08,12,05,43,15.80
2015,08,12,05,44,15.80
2015,08,12,05,45,15.80
2015,08,12,05,46,15.90
2015,08,12,05,47,16.00
2015,08,12,05,48,16.20
2015,08,12,05,49,16.30
2015,08,12,05,50,16.40
2015,08,12,05,51,16.60
2015,08,12,05,52,16.70
2015,08,12,05,53,16.80
2015,08,12,05,54,16.90
2015,08,12,05,55,17.00
2015,08,12,05,56,17.10
2015,08,12,05,57,17.10
2015,08,12,05,58,17.20
2015,08,12,05,59,17.20
2015,08,12,06,00,17.20
2015,08,12,06,01,17.20
2015,08,12,06,02,17.20
2015,08,12,06,03,17.20
2015,08,12,06,04,17.20
2015,08,12,06,05,17.10
2015,08,12,06,06,17.00
2015,08,12,06,07,16.90
2015,08,12,06,08,16.80
2015,08,12,06,09,16.60
2015,08,12,06,10,16.50
2015,08,12,06,11,16.40
2015,08,12,06,12,16.30
2015,08,12,06,13,16.20
2015,08,12,06,14,16.20
2015,08,12,06,15,16.20
2015,08,12,06,16,16.20
2015,08,12,06,17,16.30
2015,08,12,06,18,16.40
2015,08,12,06,19,16.40
2015,08,12,06,20,16.50
2015,08,12,06,21,16.60
2015,08,12,06,22,16.70
2015,08,12,06,23,16.80
2015,08,12,06,24,16.90
2015,08,12,06,25,16.90
2015,08,12,06,26,17.00
2015,08,12,06,27,17.00
2015,08,12,06,28,17.10
2015,08,12,06,29,17.10
2015,08,12,06,30,17.10
2015,08,12,06,31,17.20
2015,08,12,06,32,17.20
2015,08,12,06,33,17.20
2015,08,12,06,34,17.30
2015,08,12,06,35,17.30
2015,08,12,06,36,17.30
2015,08,12,06,37,17.40
2015,08,12,06,38,17.50
2015,08,12,06,39,17.50
2015,08,12,06,40,17.60
2015,08,12,06,41,17.60
2015,08,12,06,42,17.50
2015,08,12,06,43,17.50
2015,08,12,06,44,17.50
2015,08,12,06,45,17.40
2015,08,12,06,46,17.40
2015,08,12,06,47,17.40
2015,08,12,06,48,17.40
2015,08,12,06,49,17.30
2015,08,12,06,50,17.30
2015,08,12,06,51,17.20
2015,08,12,06,52,17.10
2015,08,12,06,53,17.00
2015,08,12,06,54,16.80
2015,08,12,06,55,16.70
2015,08,12,06,56,16.50
2015,08,12,06,57,16.40
2015,08,12,06,58,16.30
2015,08,12,06,59,16.20
2015,08,12,07,00,16.10
2015,08,12,07,01,16.00
2015,08,12,07,02,16.00
2015,08,12,07,03,15.90
2015,08,12,07,04,15.80
2015,08,12,07,05,15.80
2015,08,12,07,06,15.80
2015,08,12,07,07,15.80
2015,08,12,07,08,15.70
2015,08,12,07,09,15.70
2015,08,12,07,10,15.70
2015,08,12,07,11,15.70
2015,08,12,07,12,15.70
2015,08,12,07,13,15.70
2015,08,12,07,14,15.70
2015,08,12,07,15,15.70
2015,08,12,07,16,15.70
2015,08,12,07,17,15.70
2015,08,12,07,18,15.70
2015,08,12,07,19,15.70
2015,08,12,07,20,15.70
2015,08,12,07,21,15.80
2015,08,12,07,22,15.80
2015,08,12,07,23,15.80
2015,08,12,07,24,15.90
2015,08,12,07,25,15.90
2015,08,12,07,26,15.90
2015,08,12,07,27,16.00
2015,08,12,07,28,16.10
2015,08,12,07,29,16.10
2015,08,12,07,30,16.20
2015,08,12,07,31,16.30
2015,08,12,07,32,16.30
2015,08,12,07,33,16.40
2015,08,12,07,34,16.40
2015,08,12,07,35,16.50
2015,08,12,07,36,16.50
2015,08,12,07,37,16.60
2015,08,12,07,38,16.60
2015,08,12,07,39,16.60
2015,08,12,07,40,16.70
2015,08,12,07,41,16.70
2015,08,12,07,42,16.80
2015,08,12,07,43,16.80
2015,08,12,07,44,16.90
2015,08,12,07,45,16.90
2015,08,12,07,46,16.90
2015,08,12,07,47,17.00
2015,08,12,07,48,17.10
2015,08,12,07,49,17.10
2015,08,12,07,50,17.20
2015,08,12,07,51,17.30
2015,08,12,07,52,17.30
2015,08,12,07,53,17.40
2015,08,12,07,54,17.50
2015,08,12,07,55,17.60
2015,08,12,07,56,17.70
2015,08,12,07,57,17.80
2015,08,12,07,58,17.80
2015,08,12,07,59,17.90
2015,08,12,08,00,18.00
2015,08,12,08,01,18.10
2015,08,12,08,02,18.20
2015,08,12,08,03,18.30
2015,08,12,08,04,18.50
2015,08,12,08,05,18.60
2015,08,12,08,06,18.70
2015,08,12,08,07,18.80
2015,08,12,08,08,18.80
2015,08,12,08,09,18.90
2015,08,12,08,10,19.00
2015,08,12,08,11,19.10
2015,08,12,08,12,19.10
2015,08,12,08,13,19.20
2015,08,12,08,14,19.30
2015,08,12,08,15,19.40
2015,08,12,08,16,19.50
2015,08,12,08,17,19.50
2015,08,12,08,18,19.60
2015,08,12,08,19,19.70
2015,08,12,08,20,19.80
2015,08,12,08,21,19.90
2015,08,12,08,22,19.90
2015,08,12,08,23,20.00
2015,08,12,08,24,20.10
2015,08,12,08,25,20.20
2015,08,12,08,26,20.20
2015,08,12,08,27,20.30
2015,08,12,08,28,20.40
2015,08,12,08,29,20.50
2015,08,12,08,30,20.60
2015,08,12,08,31,20.70
2015,08,12,08,32,20.80
2015,08,12,08,33,20.90
2015,08,12,08,34,21.00
2015,08,12,08,35,21.00
2015,08,12,08,36,21.10
2015,08,12,08,37,21.20
2015,08,12,08,38,21.30
2015,08,12,08,39,21.40
2015,08,12,08,40,21.50
2015,08,12,08,41,21.50
2015,08,12,08,42,21.60
2015,08,12,08,43,21.70
2015,08,12,08,44,21.70
2015,08,12,08,45,21.80
2015,08,12,08,46,21.80
2015,08,12,08,47,21.90
2015,08,12,08,48,21.90
2015,08,12,08,49,22.00
2015,08,12,08,50,22.00
2015,08,12,08,51,22.00
2015,08,12,08,52,22.10
2015,08,12,08,53,22.10
2015,08,12,08,54,22.10
2015,08,12,08,55,22.10
2015,08,12,08,56,22.10
2015,08,12,08,57,22.20
2015,08,12,08,58,22.20
2015,08,12,08,59,22.20
2015,08,12,09,00,22.30
2015,08,12,09,01,22.30
2015,08,12,09,02,22.30
2015,08,12,09,03,22.30
2015,08,12,09,04,22.30
2015,08,12,09,05,22.40
2015,08,12,09,06,22.40
2015,08,12,09,07,22.40
2015,08,12,09,08,22.40
2015,08,12,09,09,22.50
2015,08,12,09,10,22.50
2015,08,12,09,11,22.50
2015,08,12,09,12,22.50
2015,08,12,09,13,22.50
2015,08,12,09,14,22.60
2015,08,12,09,15,22.50
2015,08,12,09,16,22.50
2015,08,12,09,17,22.50
2015,08,12,09,18,22.50
2015,08,12,09,19,22.60
2015,08,12,09,20,22.60
2015,08,12,09,21,22.60
2015,08,12,09,22,22.70
2015,08,12,09,23,22.70
2015,08,12,09,24,22.80
2015,08,12,09,25,22.80
2015,08,12,09,26,22.80
2015,08,12,09,27,22.80
2015,08,12,09,28,22.80
2015,08,12,09,29,22.80
2015,08,12,09,30,22.80
2015,08,12,09,31,22.80
2015,08,12,09,32,22.80
2015,08,12,09,33,22.80
2015,08,12,09,34,22.80
2015,08,12,09,35,22.80
2015,08,12,09,36,22.80
2015,08,12,09,37,22.80
2015,08,12,09,38,22.80
2015,08,12,09,39,22.80
2015,08,12,09,40,22.80
2015,08,12,09,41,22.80
2015,08,12,09,42,22.90
2015,08,12,09,43,22.90
2015,08,12,09,44,22.90
2015,08,12,09,45,22.90
2015,08,12,09,46,22.90
2015,08,12,09,47,23.00
2015,08,12,09,48,22.90
2015,08,12,09,49,22.90
2015,08,12,09,50,22.90
2015,08,12,09,51,22.90
2015,08,12,09,52,22.90
2015,08,12,09,53,22.90
2015,08,12,09,54,22.90
2015,08,12,09,55,22.90
2015,08,12,09,56,22.90
2015,08,12,09,57,22.90
2015,08,12,09,58,22.90
2015,08,12,09,59,23.00
2015,08,12,10,00,23.00
2015,08,12,10,01,23.00
2015,08,12,10,02,23.10
2015,08,12,10,03,23.10
2015,08,12,10,04,23.10
2015,08,12,10,05,23.10
2015,08,12,10,06,23.10
2015,08,12,10,07,23.20
2015,08,12,10,08,23.20
2015,08,12,10,09,23.10
2015,08,12,10,10,23.10
2015,08,12,10,11,23.10
2015,08,12,10,12,23.10
2015,08,12,10,13,23.10
2015,08,12,10,14,23.10
2015,08,12,10,15,23.10
2015,08,12,10,16,23.00
2015,08,12,10,17,23.00
2015,08,12,10,18,23.00
2015,08,12,10,19,23.00
2015,08,12,10,20,23.00
2015,08,12,10,21,23.10
2015,08,12,10,22,23.10
2015,08,12,10,23,23.10
2015,08,12,10,24,23.10
2015,08,12,10,25,23.10
2015,08,12,10,26,23.10
2015,08,12,10,27,23.10
2015,08,12,10,28,23.10
2015,08,12,10,29,23.10
2015,08,12,10,30,23.20
2015,08,12,10,31,23.20
2015,08,12,10,32,23.20
2015,08,12,10,33,23.20
2015,08,12,10,34,23.20
2015,08,12,10,35,23.20
2015,08,12,10,36,23.20
2015,08,12,10,37,23.30
2015,08,12,10,38,23.30
2015,08,12,10,39,23.30
2015,08,12,10,40,23.40
2015,08,12,10,41,23.40
2015,08,12,10,42,23.40
2015,08,12,10,43,23.40
2015,08,12,10,44,23.40
2015,08,12,10,45,23.40
2015,08,12,10,46,23.40
2015,08,12,10,47,23.50
2015,08,12,10,48,23.50
2015,08,12,10,49,23.60
2015,08,12,10,50,23.60
2015,08,12,10,51,23.60
2015,08,12,10,52,23.70
2015,08,12,10,53,23.80
2015,08,12,10,54,23.80
2015,08,12,10,55,23.80
2015,08,12,10,56,23.90
2015,08,12,10,57,23.90
2015,08,12,10,58,24.00
2015,08,12,10,59,24.00
2015,08,12,11,00,24.10
2015,08,12,11,01,24.10
2015,08,12,11,02,24.10
2015,08,12,11,03,24.20
2015,08,12,11,04,24.20
2015,08,12,11,05,24.30
2015,08,12,11,06,24.30
2015,08,12,11,07,24.30
2015,08,12,11,08,24.30
2015,08,12,11,09,24.40
2015,08,12,11,10,24.40
2015,08,12,11,11,24.40
2015,08,12,11,12,24.50
2015,08,12,11,13,24.50
2015,08,12,11,14,24.50
2015,08,12,11,15,24.60
2015,08,12,11,16,24.70
2015,08,12,11,17,24.70
2015,08,12,11,18,24.80
2015,08,12,11,19,24.80
2015,08,12,11,20,24.90
2015,08,12,11,21,24.90
2015,08,12,11,22,24.80
2015,08,12,11,23,24.80
2015,08,12,11,24,24.80
2015,08,12,11,25,24.80
2015,08,12,11,26,24.80
2015,08,12,11,27,24.80
2015,08,12,11,28,24.80
2015,08,12,11,29,24.80
2015,08,12,11,30,24.80
2015,08,12,11,31,24.80
2015,08,12,11,32,24.80
2015,08,12,11,33,24.80
2015,08,12,11,34,24.80
2015,08,12,11,35,24.80
2015,08,12,11,36,24.80
2015,08,12,11,37,24.80
2015,08,12,11,38,24.80
2015,08,12,11,39,24.80
2015,08,12,11,40,24.80
2015,08,12,11,41,24.90
2015,08,12,11,42,24.90
2015,08,12,11,43,24.90
2015,08,12,11,44,24.90
2015,08,12,11,45,24.90
2015,08,12,11,46,24.90
2015,08,12,11,47,24.90
2015,08,12,11,48,24.90
2015,08,12,11,49,24.90
2015,08,12,11,50,24.90
2015,08,12,11,51,24.90
2015,08,12,11,52,24.90
2015,08,12,11,53,24.80
2015,08,12,11,54,24.80
2015,08,12,11,55,24.80
2015,08,12,11,56,24.70
2015,08,12,11,57,24.70
2015,08,12,11,58,24.70
2015,08,12,11,59,24.60
2015,08,12,12,00,24.60
2015,08,12,12,01,24.50
2015,08,12,12,02,24.50
2015,08,12,12,03,24.40
2015,08,12,12,04,24.40
2015,08,12,12,05,24.30
2015,08,12,12,06,24.30
2015,08,12,12,07,24.30
2015,08,12,12,08,24.30
2015,08,12,12,09,24.30
2015,08,12,12,10,24.30
2015,08,12,12,11,24.30
2015,08,12,12,12,24.30
2015,08,12,12,13,24.30
2015,08,12,12,14,24.30
2015,08,12,12,15,24.30
2015,08,12,12,16,24.30
2015,08,12,12,17,24.30
2015,08,12,12,18,24.30
2015,08,12,12,19,24.30
2015,08,12,12,20,24.40
2015,08,12,12,21,24.40
2015,08,12,12,22,24.40
2015,08,12,12,23,24.40
2015,08,12,12,24,24.40
2015,08,12,12,25,24.40
2015,08,12,12,26,24.30
2015,08,12,12,27,24.10
2015,08,12,12,28,23.90
2015,08,12,12,29,23.60
2015,08,12,12,30,23.40
2015,08,12,12,31,23.10
2015,08,12,12,32,22.90
2015,08,12,12,33,22.70
2015,08,12,12,34,22.60
2015,08,12,12,35,22.50
2015,08,12,12,36,22.40
2015,08,12,12,37,22.40
2015,08,12,12,38,22.40
2015,08,12,12,39,22.30
2015,08,12,12,40,22.30
2015,08,12,12,41,22.30
2015,08,12,12,42,22.20
2015,08,12,12,43,22.20
2015,08,12,12,44,22.20
2015,08,12,12,45,22.10
2015,08,12,12,46,22.10
2015,08,12,12,47,22.10
2015,08,12,12,48,22.10
2015,08,12,12,49,22.10
2015,08,12,12,50,22.00
2015,08,12,12,51,22.00
2015,08,12,12,52,21.90
2015,08,12,12,53,21.90
2015,08,12,12,54,21.90
2015,08,12,12,55,21.90
2015,08,12,12,56,21.90
2015,08,12,12,57,22.00
2015,08,12,12,58,22.00
2015,08,12,12,59,22.00
2015,08,12,13,00,22.00
2015,08,12,13,01,22.00
2015,08,12,13,02,22.10
2015,08,12,13,03,22.10
2015,08,12,13,04,22.20
2015,08,12,13,05,22.20
2015,08,12,13,06,22.20
2015,08,12,13,07,22.20
2015,08,12,13,08,22.20
2015,08,12,13,09,22.30
2015,08,12,13,10,22.30
2015,08,12,13,11,22.40
2015,08,12,13,12,22.40
2015,08,12,13,13,22.50
2015,08,12,13,14,22.60
2015,08,12,13,15,22.80
2015,08,12,13,16,22.90
2015,08,12,13,17,23.10
2015,08,12,13,18,23.20
2015,08,12,13,19,23.30
2015,08,12,13,20,23.40
2015,08,12,13,21,23.50
2015,08,12,13,22,23.60
2015,08,12,13,23,23.70
2015,08,12,13,24,23.80
2015,08,12,13,25,23.90
2015,08,12,13,26,23.90
2015,08,12,13,27,24.00
2015,08,12,13,28,24.10
2015,08,12,13,29,24.20
2015,08,12,13,30,24.20
2015,08,12,13,31,24.30
2015,08,12,13,32,24.30
2015,08,12,13,33,24.40
2015,08,12,13,34,24.40
2015,08,12,13,35,24.50
2015,08,12,13,36,24.50
2015,08,12,13,37,24.60
2015,08,12,13,38,24.60
2015,08,12,13,39,24.70
2015,08,12,13,40,24.80
2015,08,12,13,41,24.90
2015,08,12,13,42,25.00
2015,08,12,13,43,25.10
2015,08,12,13,44,25.20
2015,08,12,13,45,25.20
2015,08,12,13,46,25.30
2015,08,12,13,47,25.30
2015,08,12,13,48,25.40
2015,08,12,13,49,25.50
2015,08,12,13,50,25.50
2015,08,12,13,51,25.60
2015,08,12,13,52,25.70
2015,08,12,13,53,25.80
2015,08,12,13,54,25.90
2015,08,12,13,55,26.00
2015,08,12,13,56,26.10
2015,08,12,13,57,26.30
2015,08,12,13,58,26.40
2015,08,12,13,59,26.60
2015,08,12,14,00,26.80
2015,08,12,14,01,27.00
2015,08,12,14,02,27.20
2015,08,12,14,03,27.30
2015,08,12,14,04,27.50
2015,08,12,14,05,27.70
2015,08,12,14,06,27.80
2015,08,12,14,07,28.00
2015,08,12,14,08,28.10
2015,08,12,14,09,28.00
2015,08,12,14,10,27.80
2015,08,12,14,11,27.60
2015,08,12,14,12,27.30
2015,08,12,14,13,27.00
2015,08,12,14,14,26.70
2015,08,12,14,15,26.30
2015,08,12,14,16,26.00
2015,08,12,14,17,25.80
2015,08,12,14,18,25.60
2015,08,12,14,19,25.40
2015,08,12,14,20,25.20
2015,08,12,14,21,25.10
2015,08,12,14,22,24.80
2015,08,12,14,23,24.60
2015,08,12,14,24,24.50
2015,08,12,14,25,24.40
2015,08,12,14,26,24.40
2015,08,12,14,27,24.40
2015,08,12,14,28,24.40
2015,08,12,14,29,24.50
2015,08,12,14,30,24.60
2015,08,12,14,31,24.70
2015,08,12,14,32,24.80
2015,08,12,14,33,25.00
2015,08,12,14,34,25.00
2015,08,12,14,35,25.10
2015,08,12,14,36,25.10
2015,08,12,14,37,25.20
2015,08,12,14,38,25.30
2015,08,12,14,39,25.40
2015,08,12,14,40,25.50
2015,08,12,14,41,25.60
2015,08,12,14,42,25.70
2015,08,12,14,43,25.80
2015,08,12,14,44,25.90
2015,08,12,14,45,26.00
2015,08,12,14,46,26.10
2015,08,12,14,47,26.20
2015,08,12,14,48,26.30
2015,08,12,14,49,26.30
2015,08,12,14,50,26.30
2015,08,12,14,51,26.40
2015,08,12,14,52,26.40
2015,08,12,14,53,26.40
2015,08,12,14,54,26.40
2015,08,12,14,55,26.40
2015,08,12,14,56,26.30
2015,08,12,14,57,26.30
2015,08,12,14,58,26.30
2015,08,12,14,59,26.30
2015,08,12,15,00,26.20
2015,08,12,15,01,26.10
2015,08,12,15,02,26.00
2015,08,12,15,03,25.90
2015,08,12,15,04,25.80
2015,08,12,15,05,25.70
2015,08,12,15,06,25.60
2015,08,12,15,07,25.50
2015,08,12,15,08,25.50
2015,08,12,15,09,25.40
2015,08,12,15,10,25.40
2015,08,12,15,11,25.50
2015,08,12,15,12,25.60
2015,08,12,15,13,25.70
2015,08,12,15,14,25.80
2015,08,12,15,15,25.90
2015,08,12,15,16,26.00
2015,08,12,15,17,26.10
2015,08,12,15,18,26.10
2015,08,12,15,19,26.20
2015,08,12,15,20,26.20
2015,08,12,15,21,26.20
2015,08,12,15,22,26.30
2015,08,12,15,23,26.40
2015,08,12,15,24,26.50
2015,08,12,15,25,26.60
2015,08,12,15,26,26.70
2015,08,12,15,27,26.80
2015,08,12,15,28,26.90
2015,08,12,15,29,27.00
2015,08,12,15,30,27.10
2015,08,12,15,31,27.10
2015,08,12,15,32,27.20
2015,08,12,15,33,27.10
2015,08,12,15,34,27.10
2015,08,12,15,35,27.10
2015,08,12,15,36,27.20
2015,08,12,15,37,27.20
2015,08,12,15,38,27.20
2015,08,12,15,39,27.20
2015,08,12,15,40,27.20
2015,08,12,15,41,27.10
2015,08,12,15,42,27.10
2015,08,12,15,43,27.10
2015,08,12,15,44,27.10
2015,08,12,15,45,27.10
2015,08,12,15,46,27.10
2015,08,12,15,47,27.00
2015,08,12,15,48,26.80
2015,08,12,15,49,26.60
2015,08,12,15,50,26.50
2015,08,12,15,51,26.30
2015,08,12,15,52,26.20
2015,08,12,15,53,26.10
2015,08,12,15,54,26.10
2015,08,12,15,55,26.00
2015,08,12,15,56,26.00
2015,08,12,15,57,25.90
2015,08,12,15,58,25.90
2015,08,12,15,59,26.00
2015,08,12,16,00,26.00
2015,08,12,16,01,26.00
2015,08,12,16,02,26.00
2015,08,12,16,03,26.00
2015,08,12,16,04,26.00
2015,08,12,16,05,26.00
2015,08,12,16,06,25.90
2015,08,12,16,07,25.90
2015,08,12,16,08,26.00
2015,08,12,16,09,26.10
2015,08,12,16,10,26.20
2015,08,12,16,11,26.30
2015,08,12,16,12,26.40
2015,08,12,16,13,26.40
2015,08,12,16,14,26.40
2015,08,12,16,15,26.40
2015,08,12,16,16,26.40
2015,08,12,16,17,26.30
2015,08,12,16,18,26.20
2015,08,12,16,19,26.10
2015,08,12,16,20,26.00
2015,08,12,16,21,25.90
2015,08,12,16,22,25.70
2015,08,12,16,23,25.60
2015,08,12,16,24,25.40
2015,08,12,16,25,25.30
2015,08,12,16,26,25.20
2015,08,12,16,27,25.00
2015,08,12,16,28,24.90
2015,08,12,16,29,24.80
2015,08,12,16,30,24.80
2015,08,12,16,31,24.80
2015,08,12,16,32,24.70
2015,08,12,16,33,24.70
2015,08,12,16,34,24.60
2015,08,12,16,35,24.50
2015,08,12,16,36,24.40
2015,08,12,16,37,24.30
2015,08,12,16,38,24.20
2015,08,12,16,39,24.10
2015,08,12,16,40,24.10
2015,08,12,16,41,24.00
2015,08,12,16,42,24.00
2015,08,12,16,43,23.90
2015,08,12,16,44,23.90
2015,08,12,16,45,23.90
2015,08,12,16,46,23.80
2015,08,12,16,47,23.80
2015,08,12,16,48,23.70
2015,08,12,16,49,23.60
2015,08,12,16,50,23.60
2015,08,12,16,51,23.60
2015,08,12,16,52,23.50
2015,08,12,16,53,23.50
2015,08,12,16,54,23.40
2015,08,12,16,55,23.30
2015,08,12,16,56,23.20
2015,08,12,16,57,23.20
2015,08,12,16,58,23.20
2015,08,12,16,59,23.10
2015,08,12,17,00,23.10
2015,08,12,17,01,23.10
2015,08,12,17,02,23.10
2015,08,12,17,03,23.10
2015,08,12,17,04,23.10
2015,08,12,17,05,23.00
2015,08,12,17,06,23.00
2015,08,12,17,07,22.90
2015,08,12,17,08,22.80
2015,08,12,17,09,22.80
2015,08,12,17,10,22.70
2015,08,12,17,11,22.70
2015,08,12,17,12,22.70
2015,08,12,17,13,22.80
2015,08,12,17,14,22.80
2015,08,12,17,15,22.80
2015,08,12,17,16,22.80
2015,08,12,17,17,22.80
2015,08,12,17,18,22.80
2015,08,12,17,19,22.90